Regional Weather Roundup
Issued by NWS

Home | Current Version | Previous Version | Text Only | Print | Product List | Glossary On
Versions: 1 2 3 4 5 6 7 8 9 10 11 12 13 14 15 16 17 18 19 20 21 22 23 24 25 26 27 28 29 30 31 32 33 34 35 36 37 38 39 40 41 42 43 44 45 46 47 48 49 50
000
ASUS44 KJAN 071003
RWRMS

MISSISSIPPI HOURLY WEATHER ROUNDUP
NATIONAL WEATHER SERVICE JACKSON MS
500 AM CDT THU MAY 07 2015

NOTE: "FAIR: INDICATES FEW OR NO CLOUDS BELOW 12,000 FEET WITH NO
SIGNIFICANT WEATHER AND/OR OBSTRUCTIONS TO VISIBILITY.

MSZ001>002-007>008-010>013-018>021-025>028-034>036-071100-
NORTHWEST MISSISSIPPI

CITY           SKY/WX    TMP DP  RH WIND       PRES   REMARKS
CLARKSDALE     FAIR      68  63  83 SE5       30.04R
CLEVELAND      FAIR      68  64  88 SE6       30.02S
GREENWOOD      MOCLDY    67  60  78 S5        30.04R
GREENVILLE     MOCLDY    66  59  78 SE6       30.02R
OLIVE BRANCH   CLEAR     64  61  88 SE8       30.06R
OXFORD         FAIR      64  57  77 SE7       30.08R
TUNICA         MOSUNNY   68  59  73 S8        30.04S
$$

MSZ003>006-009-014>017-022>024-029>033-037>039-071100-
NORTHEAST MISSISSIPPI

CITY           SKY/WX    TMP DP  RH WIND       PRES   REMARKS
COLUMBUS AFB   MOCLDY    59  54  82 CALM      30.08R
GOLDN TRIANGLE CLEAR     64  55  72 SE3       30.07S
STARKVILLE     FAIR      59  59 100 CALM      30.07S
TUPELO         MOCLDY    62  57  83 CALM      30.08R
$$

MSZ040-058-071100-
CENTRAL MISSISSIPPI

CITY           SKY/WX    TMP DP  RH WIND       PRES   REMARKS
JACKSON INTL   CLEAR     64  62  93 SE3       30.04S
JACKSON HAWKNS CLEAR     66  63  90 S3        30.05R
MERIDIAN KEY   CLEAR     59  57  93 CALM      30.07S
MERIDIAN NAS   CLEAR     60  57  89 CALM      30.07S
RAYMOND        FAIR      66  61  82 E3        30.04R
VICKSBURG      PTCLDY    64  62  93 SE3       30.03R
$$

MSZ059>079-071100-
SOUTH MISSISSIPPI

CITY           SKY/WX    TMP DP  RH WIND       PRES   REMARKS
BROOKHAVEN     PTSUNNY   63  63 100 CALM      30.06R FOG
HATTIESBURG    FOG       63  62  97 CALM      30.06S VSB 1/2
MCCOMB         FOG       66  66 100 CALM      30.03S VSB 1/4
NATCHEZ        CLEAR     66  64  94 S5        30.02R
PINE BELT      CLOUDY    63  54  72 CALM      30.06S VSB 1/4
$$

MSZ080>082-071100-
COASTAL MISSISSIPPI

CITY           SKY/WX    TMP DP  RH WIND       PRES   REMARKS
BILOXI         CLEAR     66  66 100 NE5       30.03R
PASCAGOULA     PTCLDY    59  58  96 CALM      30.04S FOG
GULFPORT       CLEAR     66  64  93 CALM      30.03R
$$


USA.gov is the U.S. government's official web portal to all federal, state and local government web resources and services.